Project,Study,Ord_Occ,Event_Num,Date_Time_UTC,Date_Time_PST,Lat_Dec,Lon_Dec,Sta_ID,Line,Sta,Depth,Pressure,Temp0,Temp1,Salt0,CorrSalt0,Salt1,CorrSalt1,O2ml/L,AveCorrO2ml/L,StaCorrO2ml/L,FluorV,AveEstChl,StaEstChl,ISUSV,AveEstNO3,StaEstNO3,SigThetaTS0,SigThetaTS1,BAT,XMiss,SPAR,PAR,BTL_Depth,BTL_Temp,BTL_Salt,BTL_O2ml/L,BTL_Chl,BTL_Pha,BTL_NO3
CalCOFI,0701JD,078,,01-Feb-2007 12:50:56 AM,31-Jan-2007 4:50:56 PM,36.62316,-122.41384,066.7 055.5,066.7,055.5,1028.000,1038.212,3.8932,3.8935,34.4588,34.4575,34.4573,34.4574,0.38624,0.44,0.48,0.0254,,,1.9564,46.94,43.794,27.3745,27.3733,0.4219,89.9911,3.8773e+00,9.9990e+03,1028,3.89 ,34.459,  .42,.00,.01,43.0
CalCOFI,0701JD,078,,01-Feb-2007 12:51:00 AM,31-Jan-2007 4:51:00 PM,36.62316,-122.41384,066.7 055.5,066.7,055.5,1027.000,1037.199,3.8937,3.8944,34.4587,34.4574,34.4574,34.4575,0.38649,0.44,0.48,0.0251,,,1.9168,45.78,42.613,27.3744,27.3733,0.4217,89.9949,3.6367e+00,9.9990e+03,,,,,,,
CalCOFI,0701JD,078,,01-Feb-2007 12:51:02 AM,31-Jan-2007 4:51:02 PM,36.62316,-122.41384,066.7 055.5,066.7,055.5,1026.000,1036.187,3.8953,3.8961,34.4586,34.4573,34.4573,34.4574,0.38552,0.44,0.48,0.0253,,,1.9481,46.69,43.547,27.3741,27.3731,0.4215,89.9992,3.9753e+00,9.9990e+03,,,,,,,
CalCOFI,0701JD,078,,01-Feb-2007 12:51:04 AM,31-Jan-2007 4:51:04 PM,36.62316,-122.41384,066.7 055.5,066.7,055.5,1025.000,1035.175,3.8962,3.8967,34.4585,34.4572,34.4572,34.4573,0.38543,0.44,0.48,0.0251,,,1.9408,46.48,43.329,27.3740,27.3729,0.4211,90.0085,4.2347e+00,9.9990e+03,,,,,,,
CalCOFI,0701JD,078,,01-Feb-2007 12:51:05 AM,31-Jan-2007 4:51:05 PM,36.62316,-122.41384,066.7 055.5,066.7,055.5,1024.000,1034.162,3.8991,3.8997,34.4585,34.4572,34.4569,34.4570,0.38477,0.43,0.48,0.0251,,,1.9296,46.15,42.995,27.3736,27.3724,0.4214,90.0009,4.2399e+00,9.9990e+03,,,,,,,
CalCOFI,0701JD,078,,01-Feb-2007 12:51:06 AM,31-Jan-2007 4:51:06 PM,36.62316,-122.41384,066.7 055.5,066.7,055.5,1023.000,1033.150,3.9055,3.9064,34.4579,34.4566,34.4565,34.4566,0.38381,0.43,0.48,0.0251,,,1.9302,46.17,43.013,27.3726,27.3714,0.4196,90.0417,4.1423e+00,9.9990e+03,,,,,,,
CalCOFI,0701JD,078,,01-Feb-2007 12:51:07 AM,31-Jan-2007 4:51:07 PM,36.62316,-122.41384,066.7 055.5,066.7,055.5,1022.000,1032.137,3.9080,3.9085,34.4577,34.4564,34.4565,34.4566,0.38225,0.43,0.47,0.0252,,,1.9293,46.14,42.986,27.3721,27.3711,0.4201,90.0313,3.8462e+00,9.9990e+03,,,,,,,
CalCOFI,0701JD,078,,01-Feb-2007 12:51:08 AM,31-Jan-2007 4:51:08 PM,36.62316,-122.41384,066.7 055.5,066.7,055.5,1021.000,1031.125,3.9148,3.9138,34.4567,34.4554,34.4556,34.4557,0.38230,0.43,0.47,0.0254,,,1.9126,45.65,42.488,27.3706,27.3699,0.4204,90.0241,4.1662e+00,9.9990e+03,,,,,,,
CalCOFI,0701JD,078,,01-Feb-2007 12:51:11 AM,31-Jan-2007 4:51:11 PM,36.62316,-122.41374,066.7 055.5,066.7,055.5,1020.000,1030.113,3.9093,3.9097,34.4575,34.4562,34.4560,34.4561,0.38061,0.43,0.47,0.0255,,,1.9462,46.64,43.490,27.3718,27.3706,0.4208,90.0149,4.0898e+00,9.9990e+03,,,,,,,
CalCOFI,0701JD,078,,01-Feb-2007 12:51:12 AM,31-Jan-2007 4:51:12 PM,36.62316,-122.41368,066.7 055.5,066.7,055.5,1019.000,1029.100,3.9118,3.9116,34.4573,34.4560,34.4558,34.4559,0.38149,0.43,0.47,0.0253,,,1.9354,46.32,43.168,27.3714,27.3703,0.4208,90.0146,3.9324e+00,9.9990e+03,,,,,,,
CalCOFI,0701JD,078,,01-Feb-2007 12:51:13 AM,31-Jan-2007 4:51:13 PM,36.62316,-122.41368,066.7 055.5,066.7,055.5,1018.000,1028.088,3.9197,3.9205,34.4564,34.4551,34.4550,34.4551,0.37986,0.43,0.47,0.0254,,,1.8930,45.08,41.903,27.3699,27.3687,0.4195,90.0436,4.2248e+00,9.9990e+03,,,,,,,
CalCOFI,0701JD,078,,01-Feb-2007 12:51:14 AM,31-Jan-2007 4:51:14 PM,36.62316,-122.41371,066.7 055.5,066.7,055.5,1017.000,1027.075,3.9231,3.9239,34.4560,34.4547,34.4546,34.4547,0.37882,0.43,0.47,0.0254,,,1.8929,45.07,41.900,27.3692,27.3681,0.4195,90.0441,4.1426e+00,9.9990e+03,,,,,,,
CalCOFI,0701JD,078,,01-Feb-2007 12:51:15 AM,31-Jan-2007 4:51:15 PM,36.62316,-122.41384,066.7 055.5,066.7,055.5,1016.000,1026.063,3.9278,3.9286,34.4557,34.4544,34.4543,34.4544,0.37766,0.43,0.47,0.0252,,,1.9063,45.47,42.300,27.3685,27.3673,0.4198,90.0376,3.5373e+00,9.9990e+03,,,,,,,
CalCOFI,0701JD,078,,01-Feb-2007 12:51:15 AM,31-Jan-2007 4:51:15 PM,36.62316,-122.41384,066.7 055.5,066.7,055.5,1015.000,1025.051,3.9359,3.9371,34.4550,34.4537,34.4536,34.4537,0.37699,0.43,0.47,0.0251,,,1.9292,46.14,42.983,27.3671,27.3659,0.4198,90.0382,3.7467e+00,9.9990e+03,,,,,,,
CalCOFI,0701JD,078,,01-Feb-2007 12:51:16 AM,31-Jan-2007 4:51:16 PM,36.62316,-122.41384,066.7 055.5,066.7,055.5,1014.000,1024.038,3.9404,3.9411,34.4545,34.4532,34.4534,34.4535,0.37607,0.42,0.47,0.0254,,,1.9349,46.31,43.153,27.3663,27.3653,0.4204,90.0234,3.8387e+00,9.9990e+03,,,,,,,
CalCOFI,0701JD,078,,01-Feb-2007 12:51:17 AM,31-Jan-2007 4:51:17 PM,36.62316,-122.41384,066.7 055.5,066.7,055.5,1013.000,1023.026,3.9421,3.9429,34.4543,34.4530,34.4531,34.4532,0.37495,0.42,0.47,0.0257,,,1.9352,46.32,43.162,27.3659,27.3649,0.4207,90.0182,4.0207e+00,9.9990e+03,,,,,,,
CalCOFI,0701JD,078,,01-Feb-2007 12:51:18 AM,31-Jan-2007 4:51:18 PM,36.62316,-122.41384,066.7 055.5,066.7,055.5,1012.000,1022.014,3.9427,3.9435,34.4542,34.4529,34.4530,34.4531,0.37359,0.42,0.46,0.0251,,,1.9266,46.06,42.905,27.3657,27.3648,0.4207,90.0180,3.3441e+00,9.9990e+03,,,,,,,
CalCOFI,0701JD,078,,01-Feb-2007 12:51:19 AM,31-Jan-2007 4:51:19 PM,36.62316,-122.41384,066.7 055.5,066.7,055.5,1011.000,1021.001,3.9456,3.9464,34.4538,34.4525,34.4527,34.4528,-9.990e-29,,0.46,0.0249,,,1.9122,45.64,42.476,27.3651,27.3642,0.4208,90.0143,3.9937e+00,9.9990e+03,,,,,,,
CalCOFI,0701JD,078,,01-Feb-2007 12:51:21 AM,31-Jan-2007 4:51:21 PM,36.62316,-122.41384,066.7 055.5,066.7,055.5,1010.000,1019.989,3.9439,3.9451,34.4539,34.4526,34.4527,34.4528,0.37275,0.42,0.46,0.0256,,,1.9135,45.68,42.515,27.3654,27.3643,0.4216,89.9985,3.9331e+00,9.9990e+03,,,,,,,
CalCOFI,0701JD,078,,01-Feb-2007 12:51:24 AM,31-Jan-2007 4:51:24 PM,36.62316,-122.41384,066.7 055.5,066.7,055.5,1009.000,1018.976,3.9422,3.9436,34.4541,34.4528,34.4527,34.4528,0.37167,0.42,0.46,0.0261,,,1.9102,45.58,42.416,27.3657,27.3645,0.4211,90.0075,4.0736e+00,9.9990e+03,,,,,,,
CalCOFI,0701JD,078,,01-Feb-2007 12:51:25 AM,31-Jan-2007 4:51:25 PM,36.62316,-122.41384,066.7 055.5,066.7,055.5,1008.000,1017.964,3.9517,3.9528,34.4533,34.4520,34.4517,34.4518,0.37138,0.42,0.46,0.0253,,,1.9044,45.41,42.243,27.3641,27.3627,0.4211,90.0076,3.8339e+00,9.9990e+03,,,,,,,
CalCOFI,0701JD,078,,01-Feb-2007 12:51:25 AM,31-Jan-2007 4:51:25 PM,36.62316,-122.41384,066.7 055.5,066.7,055.5,1007.000,1016.952,3.9659,3.9670,34.4509,34.4496,34.4491,34.4492,0.36919,0.42,0.46,0.0255,,,1.9542,46.87,43.728,27.3607,27.3592,0.4220,89.9875,4.0827e+00,9.9990e+03,,,,,,,
CalCOFI,0701JD,078,,01-Feb-2007 12:51:26 AM,31-Jan-2007 4:51:26 PM,36.62316,-122.41384,066.7 055.5,066.7,055.5,1006.000,1015.939,3.9704,3.9712,34.4496,34.4483,34.4484,34.4485,0.36813,0.41,0.46,0.0254,,,1.9536,46.86,43.711,27.3593,27.3582,0.4233,89.9598,3.5545e+00,9.9990e+03,,,,,,,
CalCOFI,0701JD,078,,01-Feb-2007 12:51:27 AM,31-Jan-2007 4:51:27 PM,36.62316,-122.41384,066.7 055.5,066.7,055.5,1005.000,1014.927,3.9732,3.9744,34.4493,34.4480,34.4479,34.4480,0.36746,0.41,0.46,0.0250,,,1.9536,46.86,43.711,27.3587,27.3575,0.4241,89.9421,3.8393e+00,9.9990e+03,,,,,,,
CalCOFI,0701JD,078,,01-Feb-2007 12:51:27 AM,31-Jan-2007 4:51:27 PM,36.62316,-122.41384,066.7 055.5,066.7,055.5,1004.000,1013.915,3.9800,3.9811,34.4482,34.4469,34.4468,34.4469,0.36558,0.41,0.45,0.0253,,,1.9151,45.73,42.562,27.3572,27.3559,0.4246,89.9309,4.0879e+00,9.9990e+03,,,,,,,
CalCOFI,0701JD,078,,01-Feb-2007 12:51:28 AM,31-Jan-2007 4:51:28 PM,36.62316,-122.41384,066.7 055.5,066.7,055.5,1003.000,1012.903,3.9842,3.9853,34.4479,34.4466,34.4467,34.4468,0.36565,0.41,0.45,0.0251,,,1.9137,45.68,42.521,27.3565,27.3554,0.4245,89.9322,4.1979e+00,9.9990e+03,,,,,,,
CalCOFI,0701JD,078,,01-Feb-2007 12:51:29 AM,31-Jan-2007 4:51:29 PM,36.62316,-122.41384,066.7 055.5,066.7,055.5,1002.000,1011.890,3.9901,3.9911,34.4474,34.4461,34.4460,34.4461,0.36459,0.41,0.45,0.0251,,,1.9549,46.89,43.749,27.3554,27.3543,0.4244,89.9355,3.9319e+00,9.9990e+03,,,,,,,
CalCOFI,0701JD,078,,01-Feb-2007 12:51:30 AM,31-Jan-2007 4:51:30 PM,36.62316,-122.41384,066.7 055.5,066.7,055.5,1001.000,1010.878,3.9921,3.9932,34.4469,34.4456,34.4457,34.4458,0.36360,0.41,0.45,0.0252,,,1.9166,45.77,42.607,27.3548,27.3538,0.4251,89.9182,4.2232e+00,9.9990e+03,,,,,,,
CalCOFI,0701JD,078,,01-Feb-2007 12:51:31 AM,31-Jan-2007 4:51:31 PM,36.62316,-122.41372,066.7 055.5,066.7,055.5,1000.000,1009.866,3.9919,3.9939,34.4468,34.4455,34.4456,34.4457,-9.990e-29,,0.45,0.0253,,,1.9171,45.78,42.622,27.3547,27.3537,0.4244,89.9347,4.3362e+00,9.9990e+03,,,,,,,
CalCOFI,0701JD,078,,01-Feb-2007 12:51:33 AM,31-Jan-2007 4:51:33 PM,36.62316,-122.41368,066.7 055.5,066.7,055.5,999.000,1008.853,3.9923,3.9939,34.4468,34.4455,34.4455,34.4456,0.36068,0.41,0.45,0.0253,,,1.9099,45.57,42.407,27.3548,27.3536,0.4251,89.9181,4.0801e+00,9.9990e+03,,,,,,,
CalCOFI,0701JD,078,,01-Feb-2007 12:51:35 AM,31-Jan-2007 4:51:35 PM,36.62316,-122.41368,066.7 055.5,066.7,055.5,998.000,1007.841,3.9942,3.9952,34.4465,34.4452,34.4454,34.4455,0.36051,0.41,0.45,0.0252,,,1.9122,45.64,42.476,27.3543,27.3533,0.4244,89.9355,3.9091e+00,9.9990e+03,,,,,,,
CalCOFI,0701JD,078,,01-Feb-2007 12:51:36 AM,31-Jan-2007 4:51:36 PM,36.62316,-122.41368,066.7 055.5,066.7,055.5,997.000,1006.829,3.9973,3.9980,34.4460,34.4447,34.4449,34.4450,0.35945,0.40,0.45,0.0255,,,1.9145,45.71,42.544,27.3535,27.3527,0.4243,89.9374,3.6353e+00,9.9990e+03,,,,,,,
CalCOFI,0701JD,078,,01-Feb-2007 12:51:37 AM,31-Jan-2007 4:51:37 PM,36.62316,-122.41368,066.7 055.5,066.7,055.5,996.000,1005.816,3.9988,3.9997,34.4459,34.4446,34.4448,34.4449,0.35856,0.40,0.45,0.0258,,,1.9148,45.72,42.553,27.3533,27.3524,0.4246,89.9307,4.1958e+00,9.9990e+03,,,,,,,
CalCOFI,0701JD,078,,01-Feb-2007 12:51:38 AM,31-Jan-2007 4:51:38 PM,36.62316,-122.41368,066.7 055.5,066.7,055.5,995.000,1004.804,3.9993,4.0002,34.4457,34.4444,34.4446,34.4447,0.35854,0.40,0.45,0.0252,,,1.9151,45.73,42.562,27.3531,27.3522,0.4252,89.9175,4.2234e+00,9.9990e+03,,,,,,,
CalCOFI,0701JD,078,,01-Feb-2007 12:51:38 AM,31-Jan-2007 4:51:38 PM,36.62316,-122.41368,066.7 055.5,066.7,055.5,994.000,1003.792,3.9999,4.0006,34.4458,34.4445,34.4446,34.4447,0.35823,0.40,0.45,0.0250,,,1.9150,45.72,42.559,27.3531,27.3521,0.4255,89.9090,4.3186e+00,9.9990e+03,,,,,,,
CalCOFI,0701JD,078,,01-Feb-2007 12:51:39 AM,31-Jan-2007 4:51:39 PM,36.62316,-122.41368,066.7 055.5,066.7,055.5,993.000,1002.780,4.0007,4.0017,34.4456,34.4443,34.4446,34.4447,0.35730,0.40,0.44,0.0252,,,1.9188,45.83,42.673,27.3529,27.3520,0.4251,89.9178,3.4086e+00,9.9990e+03,,,,,,,
CalCOFI,0701JD,078,,01-Feb-2007 12:51:40 AM,31-Jan-2007 4:51:40 PM,36.62316,-122.41368,066.7 055.5,066.7,055.5,992.000,1001.767,4.0018,4.0025,34.4456,34.4443,34.4445,34.4446,0.35777,0.40,0.44,0.0251,,,1.9280,46.10,42.947,27.3527,27.3518,0.4252,89.9158,3.5759e+00,9.9990e+03,,,,,,,
CalCOFI,0701JD,078,,01-Feb-2007 12:51:41 AM,31-Jan-2007 4:51:41 PM,36.62316,-122.41368,066.7 055.5,066.7,055.5,991.000,1000.755,4.0032,4.0035,34.4453,34.4440,34.4444,34.4445,0.35682,0.40,0.44,0.0251,,,1.9252,46.02,42.864,27.3524,27.3516,0.4248,89.9254,3.7750e+00,9.9990e+03,,,,,,,
CalCOFI,0701JD,078,,01-Feb-2007 12:51:43 AM,31-Jan-2007 4:51:43 PM,36.62316,-122.41368,066.7 055.5,066.7,055.5,990.000,999.743,4.0159,4.0241,34.4444,34.4431,34.4418,34.4419,0.35331,0.40,0.44,0.0251,,,1.9228,45.95,42.792,27.3503,27.3475,0.4244,89.9336,3.7777e+00,9.9990e+03,,,,,,,
CalCOFI,0701JD,078,,01-Feb-2007 12:51:44 AM,31-Jan-2007 4:51:44 PM,36.62316,-122.41368,066.7 055.5,066.7,055.5,989.000,998.730,4.0475,4.0512,34.4413,34.4400,34.4391,34.4392,0.35021,0.39,0.44,0.0256,,,1.9297,46.15,42.998,27.3446,27.3425,0.4252,89.9163,3.9468e+00,9.9990e+03,,,,,,,
CalCOFI,0701JD,078,,01-Feb-2007 12:51:45 AM,31-Jan-2007 4:51:45 PM,36.62316,-122.41368,066.7 055.5,066.7,055.5,988.000,997.718,4.0573,4.0576,34.4392,34.4379,34.4385,34.4386,0.34799,0.39,0.43,0.0253,,,1.9107,45.60,42.431,27.3419,27.3413,0.4254,89.9128,4.2021e+00,9.9990e+03,,,,,,,
CalCOFI,0701JD,078,,01-Feb-2007 12:51:46 AM,31-Jan-2007 4:51:46 PM,36.62316,-122.41368,066.7 055.5,066.7,055.5,987.000,996.706,4.0526,4.0528,34.4396,34.4383,34.4390,34.4391,0.34774,0.39,0.43,0.0249,,,1.9367,46.36,43.207,27.3428,27.3422,0.4247,89.9266,3.2730e+00,9.9990e+03,,,,,,,
CalCOFI,0701JD,078,,01-Feb-2007 12:51:47 AM,31-Jan-2007 4:51:47 PM,36.62316,-122.41368,066.7 055.5,066.7,055.5,986.000,995.694,4.0492,4.0478,34.4400,34.4387,34.4393,34.4394,0.34673,0.39,0.43,0.0250,,,1.9440,46.57,43.424,27.3434,27.3430,0.4248,89.9257,3.3352e+00,9.9990e+03,,,,,,,
CalCOFI,0701JD,078,,01-Feb-2007 12:51:48 AM,31-Jan-2007 4:51:48 PM,36.62316,-122.41368,066.7 055.5,066.7,055.5,985.000,994.682,4.0450,4.0442,34.4399,34.4386,34.4395,34.4396,0.34620,0.39,0.43,0.0252,,,1.9440,46.57,43.424,27.3438,27.3435,0.4253,89.9152,4.2451e+00,9.9990e+03,,,,,,,
CalCOFI,0701JD,078,,01-Feb-2007 12:51:49 AM,31-Jan-2007 4:51:49 PM,36.62316,-122.41368,066.7 055.5,066.7,055.5,984.000,993.669,4.0359,4.0371,34.4412,34.4399,34.4401,34.4402,0.34674,0.39,0.43,0.0253,,,1.9274,46.09,42.929,27.3457,27.3447,0.4252,89.9171,4.5006e+00,9.9990e+03,,,,,,,
CalCOFI,0701JD,078,,01-Feb-2007 12:51:50 AM,31-Jan-2007 4:51:50 PM,36.62316,-122.41368,066.7 055.5,066.7,055.5,983.000,992.657,4.0418,4.0443,34.4404,34.4391,34.4391,34.4392,0.34534,0.39,0.43,0.0253,,,1.8975,45.21,42.037,27.3444,27.3432,0.4252,89.9155,3.7511e+00,9.9990e+03,,,,,,,
CalCOFI,0701JD,078,,01-Feb-2007 12:51:52 AM,31-Jan-2007 4:51:52 PM,36.62316,-122.41368,066.7 055.5,066.7,055.5,982.000,991.645,4.0442,4.0468,34.4404,34.4391,34.4387,34.4388,0.34369,0.38,0.43,0.0253,,,1.9130,45.66,42.500,27.3442,27.3426,0.4260,89.8992,4.1207e+00,9.9990e+03,,,,,,,
CalCOFI,0701JD,078,,01-Feb-2007 12:51:53 AM,31-Jan-2007 4:51:53 PM,36.62316,-122.41368,066.7 055.5,066.7,055.5,981.000,990.633,4.0461,4.0475,34.4399,34.4386,34.4389,34.4390,0.34342,0.38,0.43,0.0256,,,1.8847,44.83,41.656,27.3436,27.3427,0.4253,89.9132,4.0043e+00,9.9990e+03,,,,,,,
CalCOFI,0701JD,078,,01-Feb-2007 12:51:54 AM,31-Jan-2007 4:51:54 PM,36.62316,-122.41368,066.7 055.5,066.7,055.5,980.000,989.620,4.0512,4.0517,34.4394,34.4381,34.4385,34.4386,0.34193,0.38,0.43,0.0255,,,1.8947,45.13,41.954,27.3427,27.3419,0.4249,89.9233,4.1463e+00,9.9990e+03,,,,,,,
CalCOFI,0701JD,078,,01-Feb-2007 12:51:55 AM,31-Jan-2007 4:51:55 PM,36.62316,-122.41368,066.7 055.5,066.7,055.5,979.000,988.608,4.0573,4.0578,34.4391,34.4378,34.4379,34.4380,0.34143,0.38,0.42,0.0252,,,1.9056,45.45,42.279,27.3418,27.3408,0.4254,89.9127,4.5959e+00,9.9990e+03,,,,,,,
CalCOFI,0701JD,078,,01-Feb-2007 12:51:56 AM,31-Jan-2007 4:51:56 PM,36.62316,-122.41368,066.7 055.5,066.7,055.5,978.000,987.596,4.0703,4.0717,34.4380,34.4367,34.4368,34.4369,0.34014,0.38,0.42,0.0253,,,1.9137,45.68,42.521,27.3396,27.3385,0.4262,89.8950,4.4796e+00,9.9990e+03,,,,,,,
CalCOFI,0701JD,078,,01-Feb-2007 12:51:56 AM,31-Jan-2007 4:51:56 PM,36.62316,-122.41368,066.7 055.5,066.7,055.5,977.000,986.584,4.0752,4.0763,34.4376,34.4363,34.4365,34.4366,0.34039,0.38,0.42,0.0250,,,1.9269,46.07,42.914,27.3387,27.3378,0.4264,89.8893,4.0511e+00,9.9990e+03,,,,,,,
CalCOFI,0701JD,078,,01-Feb-2007 12:51:57 AM,31-Jan-2007 4:51:57 PM,36.62316,-122.41368,066.7 055.5,066.7,055.5,976.000,985.572,4.0786,4.0793,34.4374,34.4361,34.4366,34.4367,0.33957,0.38,0.42,0.0249,,,1.8902,44.99,41.820,27.3382,27.3375,0.4271,89.8737,3.6082e+00,9.9990e+03,,,,,,,
CalCOFI,0701JD,078,,01-Feb-2007 12:51:59 AM,31-Jan-2007 4:51:59 PM,36.62316,-122.41368,066.7 055.5,066.7,055.5,975.000,984.559,4.0798,4.0804,34.4374,34.4361,34.4364,34.4365,0.33889,0.38,0.42,0.0252,,,1.8987,45.24,42.073,27.3381,27.3373,0.4267,89.8816,4.0470e+00,9.9990e+03,,,,,,,
CalCOFI,0701JD,078,,01-Feb-2007 12:52:00 AM,31-Jan-2007 4:52:00 PM,36.62316,-122.41368,066.7 055.5,066.7,055.5,974.000,983.547,4.0807,4.0810,34.4373,34.4360,34.4364,34.4365,0.33888,0.38,0.42,0.0251,,,1.9166,45.77,42.607,27.3379,27.3371,0.4258,89.9036,4.0311e+00,9.9990e+03,,,,,,,
CalCOFI,0701JD,078,,01-Feb-2007 12:52:01 AM,31-Jan-2007 4:52:01 PM,36.62316,-122.41368,066.7 055.5,066.7,055.5,973.000,982.535,4.0815,4.0822,34.4373,34.4360,34.4364,34.4365,0.33850,0.38,0.42,0.0248,,,1.9066,45.48,42.309,27.3379,27.3370,0.4259,89.9001,3.9693e+00,9.9990e+03,,,,,,,
CalCOFI,0701JD,078,,01-Feb-2007 12:52:02 AM,31-Jan-2007 4:52:02 PM,36.62316,-122.41368,066.7 055.5,066.7,055.5,972.000,981.523,4.0817,4.0824,34.4372,34.4359,34.4363,34.4364,0.33800,0.38,0.42,0.0254,,,1.9018,45.34,42.166,27.3377,27.3369,0.4265,89.8871,4.2651e+00,9.9990e+03,,,,,,,
CalCOFI,0701JD,078,,01-Feb-2007 12:52:04 AM,31-Jan-2007 4:52:04 PM,36.62316,-122.41368,066.7 055.5,066.7,055.5,971.000,980.511,4.0826,4.0832,34.4372,34.4359,34.4364,34.4365,0.33882,0.38,0.42,0.0252,,,1.9053,45.44,42.270,27.3376,27.3369,0.4263,89.8920,4.3197e+00,9.9990e+03,,,,,,,
CalCOFI,0701JD,078,,01-Feb-2007 12:52:05 AM,31-Jan-2007 4:52:05 PM,36.62316,-122.41368,066.7 055.5,066.7,055.5,970.000,979.499,4.0848,4.0850,34.4371,34.4358,34.4364,34.4365,0.33599,0.38,0.42,0.0251,,,1.9138,45.69,42.524,27.3373,27.3367,0.4256,89.9071,4.2769e+00,9.9990e+03,,,,,,,
CalCOFI,0701JD,078,,01-Feb-2007 12:52:06 AM,31-Jan-2007 4:52:06 PM,36.62316,-122.41368,066.7 055.5,066.7,055.5,969.000,978.486,4.0852,4.0857,34.4371,34.4358,34.4362,34.4363,0.33747,0.38,0.42,0.0248,,,1.9170,45.78,42.619,27.3373,27.3365,0.4261,89.8962,3.9238e+00,9.9990e+03,,,,,,,
CalCOFI,0701JD,078,,01-Feb-2007 12:52:07 AM,31-Jan-2007 4:52:07 PM,36.62316,-122.41368,066.7 055.5,066.7,055.5,968.000,977.474,4.0867,4.0878,34.4371,34.4358,34.4361,34.4362,0.33704,0.38,0.42,0.0249,,,1.8818,44.75,41.569,27.3371,27.3362,0.4264,89.8903,3.4407e+00,9.9990e+03,,,,,,,
CalCOFI,0701JD,078,,01-Feb-2007 12:52:08 AM,31-Jan-2007 4:52:08 PM,36.62316,-122.41368,066.7 055.5,066.7,055.5,967.000,976.462,4.0897,4.0906,34.4369,34.4356,34.4360,34.4361,0.33666,0.38,0.42,0.0250,,,1.9039,45.40,42.228,27.3366,27.3358,0.4261,89.8967,4.0998e+00,9.9990e+03,,,,,,,
CalCOFI,0701JD,078,,01-Feb-2007 12:52:09 AM,31-Jan-2007 4:52:09 PM,36.62316,-122.41368,066.7 055.5,066.7,055.5,966.000,975.450,4.0923,4.0926,34.4366,34.4353,34.4358,34.4359,0.33577,0.38,0.42,0.0252,,,1.9055,45.44,42.276,27.3361,27.3354,0.4255,89.9098,4.2233e+00,9.9990e+03,,,,,,,
CalCOFI,0701JD,078,,01-Feb-2007 12:52:10 AM,31-Jan-2007 4:52:10 PM,36.62316,-122.41368,066.7 055.5,066.7,055.5,965.000,974.438,4.0952,4.0969,34.4366,34.4353,34.4354,34.4355,0.33414,0.37,0.42,0.0254,,,1.9124,45.65,42.482,27.3358,27.3347,0.4244,89.9355,3.9084e+00,9.9990e+03,,,,,,,
CalCOFI,0701JD,078,,01-Feb-2007 12:52:11 AM,31-Jan-2007 4:52:11 PM,36.62316,-122.41368,066.7 055.5,066.7,055.5,964.000,973.426,4.1067,4.1079,34.4356,34.4343,34.4345,34.4346,0.33388,0.37,0.42,0.0252,,,1.9269,46.07,42.914,27.3338,27.3328,0.4253,89.9136,4.0170e+00,9.9990e+03,,,,,,,
CalCOFI,0701JD,078,,01-Feb-2007 12:52:12 AM,31-Jan-2007 4:52:12 PM,36.62316,-122.41368,066.7 055.5,066.7,055.5,963.000,972.414,4.1127,4.1135,34.4349,34.4336,34.4341,34.4342,0.33199,0.37,0.41,0.0254,,,1.9207,45.89,42.729,27.3326,27.3319,0.4253,89.9145,3.9314e+00,9.9990e+03,,,,,,,
CalCOFI,0701JD,078,,01-Feb-2007 12:52:13 AM,31-Jan-2007 4:52:13 PM,36.62316,-122.41368,066.7 055.5,066.7,055.5,962.000,971.402,4.1155,4.1161,34.4347,34.4334,34.4339,34.4340,0.33340,0.37,0.41,0.0255,,,1.9252,46.02,42.864,27.3322,27.3314,0.4259,89.9000,4.0961e+00,9.9990e+03,,,,,,,
CalCOFI,0701JD,078,,01-Feb-2007 12:52:14 AM,31-Jan-2007 4:52:14 PM,36.62316,-122.41368,066.7 055.5,066.7,055.5,961.000,970.389,4.1172,4.1181,34.4346,34.4333,34.4335,34.4336,0.33096,0.37,0.41,0.0255,,,1.9166,45.77,42.607,27.3319,27.3310,0.4256,89.9074,3.9149e+00,9.9990e+03,,,,,,,
CalCOFI,0701JD,078,,01-Feb-2007 12:52:15 AM,31-Jan-2007 4:52:15 PM,36.62316,-122.41368,066.7 055.5,066.7,055.5,960.000,969.377,4.1200,4.1207,34.4343,34.4330,34.4335,34.4336,0.33084,0.37,0.41,0.0256,,,1.9099,45.57,42.407,27.3313,27.3307,0.4264,89.8896,3.4902e+00,9.9990e+03,,,,,,,
CalCOFI,0701JD,078,,01-Feb-2007 12:52:16 AM,31-Jan-2007 4:52:16 PM,36.62316,-122.41368,066.7 055.5,066.7,055.5,959.000,968.365,4.1219,4.1226,34.4341,34.4328,34.4332,34.4333,0.32982,0.37,0.41,0.0253,,,1.9080,45.52,42.351,27.3310,27.3302,0.4255,89.9089,4.2528e+00,9.9990e+03,,,,,,,
CalCOFI,0701JD,078,,01-Feb-2007 12:52:17 AM,31-Jan-2007 4:52:17 PM,36.62316,-122.41368,066.7 055.5,066.7,055.5,958.000,967.353,4.1244,4.1251,34.4338,34.4325,34.4329,34.4330,0.32999,0.37,0.41,0.0253,,,1.9027,45.36,42.193,27.3305,27.3297,0.4258,89.9038,4.3180e+00,9.9990e+03,,,,,,,
CalCOFI,0701JD,078,,01-Feb-2007 12:52:18 AM,31-Jan-2007 4:52:18 PM,36.62316,-122.41368,066.7 055.5,066.7,055.5,957.000,966.341,4.1262,4.1270,34.4335,34.4322,34.4328,34.4329,0.32976,0.37,0.41,0.0254,,,1.9213,45.91,42.747,27.3300,27.3294,0.4260,89.8989,3.7553e+00,9.9990e+03,,,,,,,
CalCOFI,0701JD,078,,01-Feb-2007 12:52:21 AM,31-Jan-2007 4:52:21 PM,36.62316,-122.41368,066.7 055.5,066.7,055.5,956.000,965.329,4.1216,4.1220,34.4339,34.4326,34.4332,34.4333,0.32838,0.37,0.41,0.0254,,,1.9262,46.05,42.893,27.3309,27.3302,-9.990e-29,-9.990e-29,4.1425e+00,9.9990e+03,,,,,,,
CalCOFI,0701JD,078,,01-Feb-2007 12:52:21 AM,31-Jan-2007 4:52:21 PM,36.62316,-122.41368,066.7 055.5,066.7,055.5,955.000,964.317,4.1269,4.1281,34.4334,34.4321,34.4326,34.4327,0.32764,0.37,0.41,0.0250,,,1.9349,46.31,43.153,27.3299,27.3291,-9.990e-29,-9.990e-29,4.3478e+00,9.9990e+03,,,,,,,
CalCOFI,0701JD,078,,01-Feb-2007 12:52:22 AM,31-Jan-2007 4:52:22 PM,36.62316,-122.41368,066.7 055.5,066.7,055.5,954.000,963.305,4.1310,4.1317,34.4329,34.4316,34.4322,34.4323,0.32686,0.36,0.41,0.0252,,,1.8881,44.93,41.757,27.3291,27.3284,0.4260,89.8981,3.9451e+00,9.9990e+03,,,,,,,
CalCOFI,0701JD,078,,01-Feb-2007 12:52:23 AM,31-Jan-2007 4:52:23 PM,36.62316,-122.41368,066.7 055.5,066.7,055.5,953.000,962.293,4.1332,4.1339,34.4328,34.4315,34.4320,34.4321,0.32768,0.37,0.41,0.0251,,,1.8911,45.02,41.847,27.3288,27.3280,0.4263,89.8919,3.5440e+00,9.9990e+03,,,,,,,
CalCOFI,0701JD,078,,01-Feb-2007 12:52:24 AM,31-Jan-2007 4:52:24 PM,36.62316,-122.41368,066.7 055.5,066.7,055.5,952.000,961.281,4.1348,4.1355,34.4326,34.4313,34.4318,34.4319,0.32729,0.36,0.41,0.0248,,,1.9067,45.48,42.312,27.3284,27.3277,0.4268,89.8809,3.9895e+00,9.9990e+03,,,,,,,
CalCOFI,0701JD,078,,01-Feb-2007 12:52:25 AM,31-Jan-2007 4:52:25 PM,36.62316,-122.41368,066.7 055.5,066.7,055.5,951.000,960.268,4.1369,4.1381,34.4324,34.4311,34.4315,34.4316,0.32591,0.36,0.41,0.0251,,,1.9006,45.30,42.130,27.3280,27.3272,0.4266,89.8844,4.1805e+00,9.9990e+03,,,,,,,
CalCOFI,0701JD,078,,01-Feb-2007 12:52:26 AM,31-Jan-2007 4:52:26 PM,36.62316,-122.41368,066.7 055.5,066.7,055.5,950.000,959.256,4.1489,4.1503,34.4312,34.4299,34.4302,34.4303,0.32449,0.36,0.40,0.0254,,,1.8774,44.62,41.438,27.3259,27.3249,0.4265,89.8879,4.0340e+00,9.9990e+03,,,,,,,
CalCOFI,0701JD,078,,01-Feb-2007 12:52:27 AM,31-Jan-2007 4:52:27 PM,36.62316,-122.41368,066.7 055.5,066.7,055.5,949.000,958.244,4.1543,4.1552,34.4306,34.4293,34.4299,34.4300,0.32374,0.36,0.40,0.0255,,,1.8878,44.92,41.748,27.3248,27.3241,0.4262,89.8930,4.4016e+00,9.9990e+03,,,,,,,
CalCOFI,0701JD,078,,01-Feb-2007 12:52:28 AM,31-Jan-2007 4:52:28 PM,36.62316,-122.41368,066.7 055.5,066.7,055.5,948.000,957.232,4.1568,4.1575,34.4305,34.4292,34.4297,34.4298,0.32262,0.36,0.40,0.0251,,,1.9012,45.32,42.148,27.3244,27.3237,0.4265,89.8864,3.9321e+00,9.9990e+03,,,,,,,
CalCOFI,0701JD,078,,01-Feb-2007 12:52:29 AM,31-Jan-2007 4:52:29 PM,36.62316,-122.41368,066.7 055.5,066.7,055.5,947.000,956.220,4.1624,4.1630,34.4299,34.4286,34.4292,34.4293,0.32227,0.36,0.40,0.0252,,,1.9342,46.29,43.132,27.3233,27.3227,0.4266,89.8841,3.9464e+00,9.9990e+03,,,,,,,
CalCOFI,0701JD,078,,01-Feb-2007 12:52:30 AM,31-Jan-2007 4:52:30 PM,36.62316,-122.41368,066.7 055.5,066.7,055.5,946.000,955.208,4.1680,4.1689,34.4296,34.4283,34.4287,34.4288,0.32033,0.36,0.40,0.0252,,,1.9089,45.54,42.377,27.3225,27.3217,0.4268,89.8803,3.7479e+00,9.9990e+03,,,,,,,